Stündliche Wetter Aalsmeer

Heute, 8 März, Montag

Zeit Temperatur Niederschläge Wind Luftdruck Luftfeuchtigkeit
00:00 +3°C° 0 mm 2 m/S 768 mmHg 90%
01:00 +3°C° 0 mm 2 m/S 767 mmHg 89%
02:00 +3°C° 0 mm 2 m/S 767 mmHg 88%
03:00 +3°C° 0 mm 2 m/S 767 mmHg 87%
04:00 +3°C° 0 mm 2 m/S 767 mmHg 87%
05:00 +2°C° 0 mm 2 m/S 767 mmHg 88%
06:00 +2°C° 0 mm 2 m/S 767 mmHg 88%
07:00 +3°C° 0 mm 2 m/S 767 mmHg 83%
08:00 +4°C° 0 mm 2 m/S 767 mmHg 79%
09:00 +6°C° 0 mm 2 m/S 767 mmHg 74%
10:00 +5°C° 0 mm 3 m/S 767 mmHg 70%
11:00 +7°C° 0 mm 3 m/S 767 mmHg 66%
12:00 +7°C° 0 mm 3 m/S 767 mmHg 62%
13:00 +7°C° 0 mm 3 m/S 767 mmHg 62%
14:00 +6°C° 0 mm 4 m/S 767 mmHg 63%
15:00 +6°C° 0 mm 4 m/S 766 mmHg 63%
16:00 +5°C° 0 mm 4 m/S 766 mmHg 68%
17:00 +4°C° 0 mm 4 m/S 766 mmHg 73%
18:00 +4°C° 0 mm 4 m/S 765 mmHg 78%
19:00 +3°C° 0.2 mm 4 m/S 765 mmHg 81%
20:00 +3°C° 0.2 mm 4 m/S 765 mmHg 84%
21:00 +2°C° 0.2 mm 5 m/S 765 mmHg 87%
22:00 +2°C° 0.6 mm 5 m/S 765 mmHg 88%
23:00 +2°C° 0.6 mm 5 m/S 764 mmHg 90%

Morgen, 9 März, Dienstag

Zeit Temperatur Niederschläge Wind Luftdruck Luftfeuchtigkeit
00:00 +2°C° 0.6 mm 5 m/S 764 mmHg 91%
01:00 +3°C° 0.8 mm 5 m/S 764 mmHg 92%
02:00 +3°C° 0.8 mm 5 m/S 763 mmHg 93%
03:00 +3°C° 0.8 mm 5 m/S 763 mmHg 93%
04:00 +3°C° 0.4 mm 5 m/S 762 mmHg 93%
05:00 +3°C° 0.4 mm 5 m/S 762 mmHg 92%
06:00 +3°C° 0.4 mm 5 m/S 762 mmHg 92%
07:00 +5°C° 0.2 mm 5 m/S 762 mmHg 91%
08:00 +5°C° 0.2 mm 5 m/S 762 mmHg 90%
09:00 +5°C° 0.2 mm 4 m/S 763 mmHg 89%
10:00 +5°C° 0.1 mm 4 m/S 763 mmHg 87%
11:00 +6°C° 0.1 mm 4 m/S 763 mmHg 85%
12:00 +6°C° 0.1 mm 4 m/S 763 mmHg 83%
13:00 +6°C° 0.1 mm 4 m/S 763 mmHg 83%
14:00 +6°C° 0.1 mm 4 m/S 763 mmHg 83%
15:00 +6°C° 0.1 mm 4 m/S 763 mmHg 83%
16:00 +5°C° 0 mm 4 m/S 763 mmHg 85%
17:00 +4°C° 0 mm 3 m/S 763 mmHg 87%
18:00 +3°C° 0 mm 3 m/S 763 mmHg 90%
19:00 +4°C° 0 mm 2 m/S 763 mmHg 90%
20:00 +4°C° 0 mm 2 m/S 764 mmHg 90%
21:00 +5°C° 0 mm 1 m/S 764 mmHg 91%
22:00 +5°C° 0 mm 1 m/S 764 mmHg 91%
23:00 +4°C° 0 mm 2 m/S 763 mmHg 91%

übermorgen, 10 März, Mittwoch

Zeit Temperatur Niederschläge Wind Luftdruck Luftfeuchtigkeit
00:00 +4°C° 0 mm 2 m/S 763 mmHg 92%
01:00 +4°C° 0 mm 2 m/S 763 mmHg 92%
02:00 +3°C° 0 mm 3 m/S 763 mmHg 93%
03:00 +3°C° 0 mm 3 m/S 763 mmHg 93%
04:00 +3°C° 0 mm 3 m/S 763 mmHg 93%
05:00 +3°C° 0 mm 4 m/S 763 mmHg 93%
06:00 +3°C° 0 mm 4 m/S 763 mmHg 92%
07:00 +2°C° 0 mm 5 m/S 763 mmHg 89%
08:00 +3°C° 0 mm 5 m/S 763 mmHg 86%
09:00 +4°C° 0 mm 6 m/S 763 mmHg 84%
10:00 +5°C° 0 mm 6 m/S 762 mmHg 78%
11:00 +5°C° 0 mm 7 m/S 762 mmHg 73%
12:00 +6°C° 0 mm 7 m/S 762 mmHg 68%
13:00 +6°C° 0.1 mm 7 m/S 761 mmHg 67%
14:00 +8°C° 0.1 mm 7 m/S 761 mmHg 66%
15:00 +8°C° 0.1 mm 7 m/S 760 mmHg 65%
16:00 +6°C° 0.3 mm 7 m/S 759 mmHg 68%
17:00 +6°C° 0.3 mm 7 m/S 759 mmHg 71%
18:00 +5°C° 0.3 mm 8 m/S 758 mmHg 75%
19:00 +5°C° 0.6 mm 8 m/S 758 mmHg 76%
20:00 +5°C° 0.6 mm 9 m/S 757 mmHg 78%
21:00 +5°C° 0.6 mm 9 m/S 756 mmHg 79%
22:00 +5°C° 0.2 mm 9 m/S 755 mmHg 80%
23:00 +5°C° 0.2 mm 10 m/S 754 mmHg 81%

11 März, Donnerstag

Zeit Temperatur Niederschläge Wind Luftdruck Luftfeuchtigkeit
00:00 +5°C° 0.2 mm 10 m/S 753 mmHg 82%
01:00 +6°C° 0 mm 10 m/S 752 mmHg 82%
02:00 +6°C° 0 mm 10 m/S 751 mmHg 82%
03:00 +6°C° 0 mm 10 m/S 750 mmHg 82%
04:00 +7°C° 0.6 mm 10 m/S 750 mmHg 84%
05:00 +7°C° 0.6 mm 10 m/S 749 mmHg 86%
06:00 +8°C° 0.6 mm 11 m/S 749 mmHg 87%
07:00 +8°C° 0.5 mm 11 m/S 749 mmHg 80%
08:00 +8°C° 0.5 mm 11 m/S 749 mmHg 73%
09:00 +8°C° 0.5 mm 11 m/S 748 mmHg 66%
10:00 +9°C° 0 mm 12 m/S 749 mmHg 64%
11:00 +9°C° 0 mm 12 m/S 749 mmHg 61%
12:00 +9°C° 0 mm 12 m/S 749 mmHg 59%
13:00 +9°C° 0.1 mm 12 m/S 749 mmHg 60%
14:00 +8°C° 0.1 mm 12 m/S 749 mmHg 62%
15:00 +8°C° 0.1 mm 11 m/S 749 mmHg 63%
16:00 +7°C° 0.2 mm 11 m/S 749 mmHg 65%
17:00 +7°C° 0.2 mm 10 m/S 749 mmHg 66%
18:00 +6°C° 0.2 mm 10 m/S 750 mmHg 68%
19:00 +6°C° 0.2 mm 9 m/S 750 mmHg 68%
20:00 +5°C° 0.2 mm 9 m/S 751 mmHg 69%
21:00 +5°C° 0.2 mm 9 m/S 752 mmHg 69%
22:00 +5°C° 0.1 mm 9 m/S 752 mmHg 70%
23:00 +4°C° 0.1 mm 8 m/S 753 mmHg 72%

12 März, Freitag

Zeit Temperatur Niederschläge Wind Luftdruck Luftfeuchtigkeit
00:00 +4°C° 0.1 mm 8 m/S 753 mmHg 73%
01:00 +4°C° 0 mm 8 m/S 753 mmHg 74%
02:00 +4°C° 0 mm 8 m/S 754 mmHg 74%
03:00 +3°C° 0 mm 7 m/S 754 mmHg 75%
04:00 +3°C° 0 mm 7 m/S 754 mmHg 75%
05:00 +3°C° 0 mm 7 m/S 754 mmHg 74%
06:00 +3°C° 0 mm 7 m/S 754 mmHg 73%
07:00 +4°C° 0 mm 8 m/S 754 mmHg 73%
08:00 +5°C° 0 mm 8 m/S 754 mmHg 72%
09:00 +5°C° 0 mm 9 m/S 754 mmHg 71%
10:00 +5°C° 0.2 mm 10 m/S 754 mmHg 73%
11:00 +5°C° 0.2 mm 10 m/S 753 mmHg 76%
12:00 +4°C° 0.2 mm 11 m/S 753 mmHg 78%
13:00 +5°C° 0.8 mm 10 m/S 753 mmHg 78%
14:00 +5°C° 0.8 mm 9 m/S 753 mmHg 79%
15:00 +5°C° 0.8 mm 8 m/S 753 mmHg 79%
16:00 +5°C° 0.1 mm 8 m/S 753 mmHg 78%
17:00 +5°C° 0.1 mm 7 m/S 753 mmHg 77%
18:00 +4°C° 0.1 mm 7 m/S 753 mmHg 75%
19:00 +4°C° 0.2 mm 6 m/S 753 mmHg 75%
20:00 +4°C° 0.2 mm 6 m/S 753 mmHg 75%
21:00 +4°C° 0.2 mm 6 m/S 753 mmHg 76%
22:00 +4°C° 0 mm 6 m/S 753 mmHg 76%
23:00 +4°C° 0 mm 6 m/S 753 mmHg 77%

13 März, Samstag

Zeit Temperatur Niederschläge Wind Luftdruck Luftfeuchtigkeit
00:00 +3°C° 0 mm 6 m/S 754 mmHg 78%
01:00 +3°C° 0.1 mm 6 m/S 753 mmHg 79%
02:00 +4°C° 0.1 mm 7 m/S 753 mmHg 80%
03:00 +4°C° 0.1 mm 7 m/S 753 mmHg 81%
04:00 +3°C° 0 mm 6 m/S 754 mmHg 82%
05:00 +3°C° 0 mm 6 m/S 754 mmHg 83%
06:00 +3°C° 0 mm 6 m/S 754 mmHg 84%
07:00 +3°C° 0 mm 6 m/S 754 mmHg 81%
08:00 +4°C° 0 mm 7 m/S 754 mmHg 79%
09:00 +5°C° 0 mm 8 m/S 754 mmHg 76%
10:00 +5°C° 0.6 mm 8 m/S 753 mmHg 80%
11:00 +5°C° 0.6 mm 9 m/S 753 mmHg 84%
12:00 +5°C° 0.6 mm 9 m/S 752 mmHg 88%
13:00 +5°C° 0.7 mm 9 m/S 752 mmHg 87%
14:00 +6°C° 0.7 mm 9 m/S 752 mmHg 85%
15:00 +6°C° 0.7 mm 9 m/S 751 mmHg 83%
16:00 +6°C° 0.1 mm 9 m/S 751 mmHg 82%
17:00 +6°C° 0.1 mm 9 m/S 751 mmHg 81%
18:00 +6°C° 0.1 mm 9 m/S 751 mmHg 79%
19:00 +6°C° 0.3 mm 9 m/S 751 mmHg 79%
20:00 +6°C° 0.3 mm 9 m/S 751 mmHg 79%
21:00 +7°C° 0.3 mm 10 m/S 751 mmHg 78%
22:00 +6°C° 0.9 mm 10 m/S 751 mmHg 80%
23:00 +6°C° 0.9 mm 10 m/S 751 mmHg 81%
Mehr zeigen

Wir brauchen deine Erlaubnis

Meteoprog und unser Service Anbieter werden persönliche Daten aufbewahren, so wie Cookies, Geräte Bezeichnung oder ähnliche Technologien von deinem Gerät und Prozess, so wie Persönliche Daten Inhalte und Werbungen, genauso wie social Media und den Verkehr zu analysieren.

  • Aufbewahrung und/oder Zugang zu deiner Geräte Informationen.

    Cookies, Geräte Bezeichnung oder andere Informationen, können aufbewahrt oder Zugang zu deinem Gerät erhalten, für den Grund, der oben angegeben wird.

  • Personalisierte Werbung und Inhalte, Messungen, Einblick in das Publikum und Produkt Entwicklung.

    Werbungen und Inhalte können personalisiert werden, basierend auf ein Profil. Mehr Daten können besser personalisierte Werbungen und Inhalte hinzufügen. Werbung und Inhalte können gezeigt und gemessen werden. Einblicke über das Publikum, welche die Werbung gesehen haben und den Inhalt, können abgeleitet werden. So wie Daten können genutzt werden, um es zu verbessern oder die Benutzer Erfahrung zu verbessern das System und die Software.

Wenn du “Ich stimme zu” klickst, erlaubst du uns, die Cookies zu benutzen die Geräte Bezeichnung, den Web oder ähnliche Technologien zu benutzen. Deine Settings, können in deinem Gerät bei deinem Browser geändert werden.

Für den bestimmten Zweck, berechtigten Interessen beruhen darauf, mehr als auf den Inhalt. Du kannst mehr darüber in unseren Privaten und Cookie Politik lesen.